Regional Weather Roundup
Issued by NWS

Home | Current Version | Previous Version | Text Only | Print | Product List | Glossary On
Versions: 1 2 3 4 5 6 7 8 9 10 11 12 13 14 15 16 17 18 19 20 21 22 23 24 25 26 27
000
ASUS46 KSEW 160410
RWRWA

WASHINGTON REGIONAL WEATHER ROUNDUP
NATIONAL WEATHER SERVICE SEATTLE WA
900 PM PDT TUE APR 15 2014

NOTE:"FAIR" INDICATES FEW OR NO CLOUDS BELOW 12,000 FEET WITH NO
SIGNIFICANT WEATHER AND/OR OBSTRUCTIONS TO VISIBILITY.

WAZ505-507>509-160500-
SEATTLE, TACOMA, EVERETT, AND VICINITY

CITY           SKY/WX    TMP DP  RH WIND       PRES   REMARKS
EVERETT        CLOUDY    51  42  71 S14       30.09R
BOEING FIELD   CLOUDY    54  42  64 VRB6      30.11R
RENTON         CLOUDY    54  43  66 S7        30.11R
SEATAC AIRPORT CLOUDY    52  29  41 SW8       30.12R
JBLM-MCCHORD   CLOUDY    53  43  69 SW5       30.12R
PUYALLUP         N/A     50  41  71 W3        30.12R
JBLM-FT LEWIS  CLOUDY    52  42  68 S5        30.12R
TACOMA NARROWS CLOUDY    51  42  71 W7        30.12R
$$

WAZ001-503-506-510-514-515-160500-
NORTH INTERIOR

CITY           SKY/WX    TMP DP  RH WIND       PRES   REMARKS
BELLINGHAM     LGT RAIN  50  43  77 S3        30.07R
FRIDAY HARBOR  LGT RAIN  47  44  90 NW3       30.09S
EASTSOUND      LGT RAIN  50  41  71 SW6       30.07R
PORT ANGELES   LGT RAIN  48  45  89 CALM      30.08S
NAS WHIDBEY    LGT RAIN  53  42  66 N6        30.08R
BURLINGTON     CLOUDY    52  43  71 CALM      30.09R
$$

WAZ020-022-039-040-504-511-512-160500-
SOUTHWEST INTERIOR

CITY           SKY/WX    TMP DP  RH WIND       PRES   REMARKS
SHELTON        LGT RAIN  48  44  86 SW8       30.10R
OLYMPIA        CLOUDY    50  42  74 W6        30.13R
CHEHALIS       LGT RAIN  50  41  71 CALM      30.15R
KELSO          CLOUDY    52  39  62 CALM      30.18S
VANCOUVER      CLOUDY    56  39  53 CALM      30.13R
SCAPPOOSE, OR  CLOUDY    54  40  59 N3        30.13R
PORTLAND, OR   CLOUDY    56  40  55 SW8       30.14R
$$

WAZ021-516-517-160500-
WASHINGTON COAST

CITY           SKY/WX    TMP DP  RH WIND       PRES   REMARKS
FORKS          LGT RAIN  49  49 100 SW6       30.07R
HOQUIAM        LGT RAIN  49  47  93 S16       30.12S FOG
ASTORIA, OR    LGT RAIN  49  45  86 SW12      30.15S FOG
$$

WAZ019-023-024-040-518-519-160500-
CASCADE MOUNTAINS AND COLUMBIA GORGE

CITY           SKY/WX    TMP DP  RH WIND       PRES   REMARKS
STAMPEDE PASS  NOT AVBL
TROUTDALE, OR  CLOUDY    55  39  54 SW6       30.13R
THE DALLES, OR CLOUDY    55  35  47 NW6       30.09R
$$

WAZ026-027-041>044-520-521-160500-
EAST SLOPES

CITY           SKY/WX    TMP DP  RH WIND       PRES   REMARKS
OMAK           CLOUDY    50  22  33 NW8       29.95R
WENATCHEE      MOCLDY    54  24  31 NW12      30.01R
ELLENSBURG     PTCLDY    46  31  55 W9        30.04R
YAKIMA         MOCLDY    54  27  35 W10       30.03R
$$

WAZ028-034-035-160500-
COLUMBIA BASIN

CITY           SKY/WX    TMP DP  RH WIND       PRES   REMARKS
EPHRATA        CLOUDY    54  23  30 W24G32    29.96R
MOSES LAKE     CLOUDY    55  23  28 W15       29.99R
HANFORD        NOT AVBL
PASCO          CLOUDY    55  27  34 NW15      30.01R
HERMISTON, OR  CLOUDY    54  35  48 SW13      30.02R
$$

WAZ036>038-160500-
NORTHEAST WASHINGTON

CITY           SKY/WX    TMP DP  RH WIND       PRES   REMARKS
SPOKANE GEIGER CLOUDY    47  23  38 W10       29.92R
SPOKANE FELTS  MOCLDY    44  28  53 N3        29.92R
FAIRCHILD AFB  MOCLDY    46  25  43 W14       29.92R
COEURDALENE,ID PTCLDY    39  34  81 E5        29.93R
DEER PARK      PTCLDY    39  27  62 CALM      29.92R
$$

WAZ029>033-160500-
SOUTHEAST WASHINGTON

CITY           SKY/WX    TMP DP  RH WIND       PRES   REMARKS
PULLMAN        PTCLDY    47  22  37 W10       29.98R
LEWISTON, ID   CLOUDY    54  20  26 SW8       29.98R
WALLA WALLA    MOCLDY    52  35  52 SW9       30.03R
PENDLETON, OR  CLOUDY    51  31  46 W22       30.02S
$$



USA.gov is the U.S. government's official web portal to all federal, state and local government web resources and services.